Black River (Missouri), Williamsville (07062575)

StateMissouriLatestLow (680 cfs)
RiverBlack RiverRatingObservedEstimated
Updated2021-01-24 7:30 (1 hour ago)Flood - The river is flooding. Obstacles can be treacherous or deadly. The river should be avoided at this stage for casual trips and definitely for the inexperienced. Trips should be attempted only with protective gear and equipment.Flood(none)4907
Discharge680 cfs (median: 1120 cfs)High - The river is high and potentially dangerous, especially for the young and / or inexperienced. Normal stream obstacles are sometimes difficult to navigate. Extended distances can be attempted, but canoe travel may not be advisable.High(none)2697
Height3.81 feetGood - Conditions are ideal for a canoe or kayak. Boats typically will drag on fewer than one-quarter of riffles, if at all, and portages are unnecessary or rare. Normal float lengths can be attempted without a problem.Good(none)1904
TrendSteady (steady over 24 hours)Low - River is low but can still be floated. Some riffles are okay but most come with significant dragging and might need a portage. Float lengths should be reduced to accommodate low flow, dragging, and portages.Low(none)637
USGSExternal icon USGS Site (External icon Google Maps)Poor - River is too low to float comfortably. Most or all riffles will drag or must be portaged and some obstacles (such as slick shelf rock) cause undue problems. Avoid the river at this stage for casual paddling trips.Poor(none)298

Trending Data

Plot Image

Trips for Black River (Missouri), Williamsville (07062575)

DateStartEndDistanceConditionDischargeHeightFishingDetails

A total of 0 rows are displayed.

Condition Descriptions

Fishing Conditions

Fish Species

Notes

Classic Trip List

The classic River Trips application is still available for use. It is updated with the new system using a data retrofit. It is no longer maintained. The original River Trips application is no longer updated (as of 1 Dec 2016) but can be checked for errors or for the condition of the data before it was converted to the new system.

Gauge Data Table

ObservationHeightDischargeMaximum
Discharge
Minimum
Discharge
Mean
Discharge
P05P10P20P25P50
(Median)
P75P80P90P95
2021-01-24 07:30 3.81 680 3900 (2020) 451 (2018) 1720 452 465 510 1120 3300 3570 3810
2021-01-24 06:30 3.81 680 3900 (2020) 451 (2018) 1720 452 465 510 1120 3300 3570 3810
2021-01-24 05:30 3.80 675 3900 (2020) 451 (2018) 1720 452 465 510 1120 3300 3570 3810
2021-01-24 04:30 3.80 675 3900 (2020) 451 (2018) 1720 452 465 510 1120 3300 3570 3810
2021-01-24 03:30 3.80 675 3900 (2020) 451 (2018) 1720 452 465 510 1120 3300 3570 3810
2021-01-24 02:30 3.80 675 3900 (2020) 451 (2018) 1720 452 465 510 1120 3300 3570 3810
2021-01-24 01:30 3.80 675 3900 (2020) 451 (2018) 1720 452 465 510 1120 3300 3570 3810
2021-01-24 00:30 3.80 675 3900 (2020) 451 (2018) 1720 452 465 510 1120 3300 3570 3810
2021-01-23 23:30 3.80 675 3990 (2019) 431 (2018) 1790 438 468 535 1090 3460 3720 3950
2021-01-23 22:30 3.80 675 3990 (2019) 431 (2018) 1790 438 468 535 1090 3460 3720 3950
2021-01-23 21:30 3.80 675 3990 (2019) 431 (2018) 1790 438 468 535 1090 3460 3720 3950
2021-01-23 20:30 3.80 675 3990 (2019) 431 (2018) 1790 438 468 535 1090 3460 3720 3950
2021-01-23 19:30 3.80 675 3990 (2019) 431 (2018) 1790 438 468 535 1090 3460 3720 3950
2021-01-23 18:30 3.80 675 3990 (2019) 431 (2018) 1790 438 468 535 1090 3460 3720 3950
2021-01-23 17:30 3.80 675 3990 (2019) 431 (2018) 1790 438 468 535 1090 3460 3720 3950
2021-01-23 16:30 3.80 675 3990 (2019) 431 (2018) 1790 438 468 535 1090 3460 3720 3950
2021-01-23 15:30 3.80 675 3990 (2019) 431 (2018) 1790 438 468 535 1090 3460 3720 3950
2021-01-23 14:30 3.81 680 3990 (2019) 431 (2018) 1790 438 468 535 1090 3460 3720 3950
2021-01-23 13:30 3.81 680 3990 (2019) 431 (2018) 1790 438 468 535 1090 3460 3720 3950
2021-01-23 12:30 3.81 680 3990 (2019) 431 (2018) 1790 438 468 535 1090 3460 3720 3950
2021-01-23 11:30 3.81 680 3990 (2019) 431 (2018) 1790 438 468 535 1090 3460 3720 3950
2021-01-23 10:30 3.81 680 3990 (2019) 431 (2018) 1790 438 468 535 1090 3460 3720 3950
2021-01-23 09:30 3.81 680 3990 (2019) 431 (2018) 1790 438 468 535 1090 3460 3720 3950
2021-01-23 08:30 3.81 680 3990 (2019) 431 (2018) 1790 438 468 535 1090 3460 3720 3950
2021-01-23 07:30 3.81 680 3990 (2019) 431 (2018) 1790 438 468 535 1090 3460 3720 3950
2021-01-23 06:30 3.81 680 3990 (2019) 431 (2018) 1790 438 468 535 1090 3460 3720 3950
2021-01-23 05:30 3.81 680 3990 (2019) 431 (2018) 1790 438 468 535 1090 3460 3720 3950
2021-01-23 04:30 3.81 680 3990 (2019) 431 (2018) 1790 438 468 535 1090 3460 3720 3950
2021-01-23 03:30 3.81 680 3990 (2019) 431 (2018) 1790 438 468 535 1090 3460 3720 3950
2021-01-23 02:30 3.81 680 3990 (2019) 431 (2018) 1790 438 468 535 1090 3460 3720 3950
2021-01-23 01:30 3.82 686 3990 (2019) 431 (2018) 1790 438 468 535 1090 3460 3720 3950
2021-01-23 00:30 3.82 686 3990 (2019) 431 (2018) 1790 438 468 535 1090 3460 3720 3950
2021-01-22 23:30 3.82 686 3850 (2020) 433 (2018) 1660 439 472 528 1280 2840 3350 3800
2021-01-22 22:30 3.82 686 3850 (2020) 433 (2018) 1660 439 472 528 1280 2840 3350 3800
2021-01-22 21:30 3.82 686 3850 (2020) 433 (2018) 1660 439 472 528 1280 2840 3350 3800
2021-01-22 20:30 3.82 686 3850 (2020) 433 (2018) 1660 439 472 528 1280 2840 3350 3800
2021-01-22 19:30 3.83 692 3850 (2020) 433 (2018) 1660 439 472 528 1280 2840 3350 3800
2021-01-22 18:30 3.83 692 3850 (2020) 433 (2018) 1660 439 472 528 1280 2840 3350 3800
2021-01-22 17:30 3.83 692 3850 (2020) 433 (2018) 1660 439 472 528 1280 2840 3350 3800
2021-01-22 16:30 3.83 692 3850 (2020) 433 (2018) 1660 439 472 528 1280 2840 3350 3800
2021-01-22 15:30 3.84 697 3850 (2020) 433 (2018) 1660 439 472 528 1280 2840 3350 3800
2021-01-22 14:30 3.84 697 3850 (2020) 433 (2018) 1660 439 472 528 1280 2840 3350 3800
2021-01-22 13:30 3.84 697 3850 (2020) 433 (2018) 1660 439 472 528 1280 2840 3350 3800
2021-01-22 12:30 3.84 697 3850 (2020) 433 (2018) 1660 439 472 528 1280 2840 3350 3800
2021-01-22 11:30 3.85 703 3850 (2020) 433 (2018) 1660 439 472 528 1280 2840 3350 3800
2021-01-22 10:30 3.85 703 3850 (2020) 433 (2018) 1660 439 472 528 1280 2840 3350 3800
2021-01-22 09:30 3.85 703 3850 (2020) 433 (2018) 1660 439 472 528 1280 2840 3350 3800
2021-01-22 08:30 3.85 703 3850 (2020) 433 (2018) 1660 439 472 528 1280 2840 3350 3800
2021-01-22 07:30 3.85 703 3850 (2020) 433 (2018) 1660 439 472 528 1280 2840 3350 3800
2021-01-22 06:30 3.86 708 3850 (2020) 433 (2018) 1660 439 472 528 1280 2840 3350 3800
2021-01-22 05:30 3.86 708 3850 (2020) 433 (2018) 1660 439 472 528 1280 2840 3350 3800
2021-01-22 04:30 3.87 714 3850 (2020) 433 (2018) 1660 439 472 528 1280 2840 3350 3800
2021-01-22 03:30 3.88 720 3850 (2020) 433 (2018) 1660 439 472 528 1280 2840 3350 3800
2021-01-22 02:30 3.88 720 3850 (2020) 433 (2018) 1660 439 472 528 1280 2840 3350 3800
2021-01-22 01:30 3.89 725 3850 (2020) 433 (2018) 1660 439 472 528 1280 2840 3350 3800
2021-01-22 00:30 3.90 731 3850 (2020) 433 (2018) 1660 439 472 528 1280 2840 3350 3800
2021-01-21 23:30 3.91 737 3880 (2020) 407 (2018) 1710 420 470 527 1270 2930 3410 3840
2021-01-21 22:30 3.92 743 3880 (2020) 407 (2018) 1710 420 470 527 1270 2930 3410 3840
2021-01-21 21:30 3.94 754 3880 (2020) 407 (2018) 1710 420 470 527 1270 2930 3410 3840
2021-01-21 20:30 3.96 766 3880 (2020) 407 (2018) 1710 420 470 527 1270 2930 3410 3840
2021-01-21 19:30 3.99 783 3880 (2020) 407 (2018) 1710 420 470 527 1270 2930 3410 3840
2021-01-21 18:30 4.02 801 3880 (2020) 407 (2018) 1710 420 470 527 1270 2930 3410 3840
2021-01-21 17:30 4.06 825 3880 (2020) 407 (2018) 1710 420 470 527 1270 2930 3410 3840
2021-01-21 16:30 4.10 849 3880 (2020) 407 (2018) 1710 420 470 527 1270 2930 3410 3840
2021-01-21 15:30 4.15 879 3880 (2020) 407 (2018) 1710 420 470 527 1270 2930 3410 3840
2021-01-21 14:30 4.19 904 3880 (2020) 407 (2018) 1710 420 470 527 1270 2930 3410 3840
2021-01-21 13:30 4.21 916 3880 (2020) 407 (2018) 1710 420 470 527 1270 2930 3410 3840
2021-01-21 12:30 4.22 922 3880 (2020) 407 (2018) 1710 420 470 527 1270 2930 3410 3840
2021-01-21 11:30 4.22 922 3880 (2020) 407 (2018) 1710 420 470 527 1270 2930 3410 3840
2021-01-21 10:30 4.22 922 3880 (2020) 407 (2018) 1710 420 470 527 1270 2930 3410 3840
2021-01-21 09:30 4.22 922 3880 (2020) 407 (2018) 1710 420 470 527 1270 2930 3410 3840
2021-01-21 08:30 4.22 922 3880 (2020) 407 (2018) 1710 420 470 527 1270 2930 3410 3840
2021-01-21 07:30 4.22 922 3880 (2020) 407 (2018) 1710 420 470 527 1270 2930 3410 3840
2021-01-21 06:30 4.22 922 3880 (2020) 407 (2018) 1710 420 470 527 1270 2930 3410 3840
2021-01-21 05:30 4.22 922 3880 (2020) 407 (2018) 1710 420 470 527 1270 2930 3410 3840
2021-01-21 04:30 4.22 922 3880 (2020) 407 (2018) 1710 420 470 527 1270 2930 3410 3840
2021-01-21 03:30 4.22 922 3880 (2020) 407 (2018) 1710 420 470 527 1270 2930 3410 3840
2021-01-21 02:30 4.22 922 3880 (2020) 407 (2018) 1710 420 470 527 1270 2930 3410 3840
2021-01-21 01:30 4.22 922 3880 (2020) 407 (2018) 1710 420 470 527 1270 2930 3410 3840
2021-01-21 00:30 4.22 922 3880 (2020) 407 (2018) 1710 420 470 527 1270 2930 3410 3840
2021-01-20 23:30 4.23 929 3910 (2020) 407 (2018) 1770 421 476 543 1310 3060 3460 3870
2021-01-20 22:30 4.22 922 3910 (2020) 407 (2018) 1770 421 476 543 1310 3060 3460 3870
2021-01-20 21:30 4.23 929 3910 (2020) 407 (2018) 1770 421 476 543 1310 3060 3460 3870
2021-01-20 20:30 4.23 929 3910 (2020) 407 (2018) 1770 421 476 543 1310 3060 3460 3870
2021-01-20 19:30 4.23 929 3910 (2020) 407 (2018) 1770 421 476 543 1310 3060 3460 3870
2021-01-20 18:30 4.22 922 3910 (2020) 407 (2018) 1770 421 476 543 1310 3060 3460 3870
2021-01-20 17:30 4.22 922 3910 (2020) 407 (2018) 1770 421 476 543 1310 3060 3460 3870
2021-01-20 16:30 4.22 922 3910 (2020) 407 (2018) 1770 421 476 543 1310 3060 3460 3870
2021-01-20 15:30 4.23 929 3910 (2020) 407 (2018) 1770 421 476 543 1310 3060 3460 3870
2021-01-20 14:30 4.23 929 3910 (2020) 407 (2018) 1770 421 476 543 1310 3060 3460 3870
2021-01-20 13:30 4.22 922 3910 (2020) 407 (2018) 1770 421 476 543 1310 3060 3460 3870
2021-01-20 12:30 4.22 922 3910 (2020) 407 (2018) 1770 421 476 543 1310 3060 3460 3870
2021-01-20 11:30 4.22 922 3910 (2020) 407 (2018) 1770 421 476 543 1310 3060 3460 3870
2021-01-20 10:30 4.22 922 3910 (2020) 407 (2018) 1770 421 476 543 1310 3060 3460 3870
2021-01-20 09:30 4.21 916 3910 (2020) 407 (2018) 1770 421 476 543 1310 3060 3460 3870
2021-01-20 08:30 4.21 916 3910 (2020) 407 (2018) 1770 421 476 543 1310 3060 3460 3870
2021-01-20 07:30 4.20 910 3910 (2020) 407 (2018) 1770 421 476 543 1310 3060 3460 3870
2021-01-20 06:30 4.20 910 3910 (2020) 407 (2018) 1770 421 476 543 1310 3060 3460 3870
2021-01-20 05:30 4.20 910 3910 (2020) 407 (2018) 1770 421 476 543 1310 3060 3460 3870
2021-01-20 04:30 4.20 910 3910 (2020) 407 (2018) 1770 421 476 543 1310 3060 3460 3870
2021-01-20 03:30 4.20 910 3910 (2020) 407 (2018) 1770 421 476 543 1310 3060 3460 3870
2021-01-20 02:30 4.19 904 3910 (2020) 407 (2018) 1770 421 476 543 1310 3060 3460 3870
2021-01-20 01:30 4.19 904 3910 (2020) 407 (2018) 1770 421 476 543 1310 3060 3460 3870
2021-01-20 00:30 4.18 898 3910 (2020) 407 (2018) 1770 421 476 543 1310 3060 3460 3870
2021-01-19 23:30 4.17 891 3920 (2020) 408 (2018) 1710 418 476 556 1300 3080 3470 3850
2021-01-19 22:30 4.16 885 3920 (2020) 408 (2018) 1710 418 476 556 1300 3080 3470 3850
2021-01-19 21:30 4.15 879 3920 (2020) 408 (2018) 1710 418 476 556 1300 3080 3470 3850
2021-01-19 20:30 4.14 873 3920 (2020) 408 (2018) 1710 418 476 556 1300 3080 3470 3850
2021-01-19 19:30 4.12 861 3920 (2020) 408 (2018) 1710 418 476 556 1300 3080 3470 3850
2021-01-19 18:30 4.09 843 3920 (2020) 408 (2018) 1710 418 476 556 1300 3080 3470 3850
2021-01-19 17:30 4.06 825 3920 (2020) 408 (2018) 1710 418 476 556 1300 3080 3470 3850
2021-01-19 16:30 4.02 801 3920 (2020) 408 (2018) 1710 418 476 556 1300 3080 3470 3850
2021-01-19 15:30 3.98 777 3920 (2020) 408 (2018) 1710 418 476 556 1300 3080 3470 3850
2021-01-19 14:30 3.94 754 3920 (2020) 408 (2018) 1710 418 476 556 1300 3080 3470 3850
2021-01-19 13:30 3.92 743 3920 (2020) 408 (2018) 1710 418 476 556 1300 3080 3470 3850
2021-01-19 12:30 3.92 743 3920 (2020) 408 (2018) 1710 418 476 556 1300 3080 3470 3850
2021-01-19 11:30 3.92 743 3920 (2020) 408 (2018) 1710 418 476 556 1300 3080 3470 3850
2021-01-19 10:30 3.92 743 3920 (2020) 408 (2018) 1710 418 476 556 1300 3080 3470 3850
2021-01-19 09:30 3.92 743 3920 (2020) 408 (2018) 1710 418 476 556 1300 3080 3470 3850
2021-01-19 08:30 3.92 743 3920 (2020) 408 (2018) 1710 418 476 556 1300 3080 3470 3850
2021-01-19 07:30 3.92 743 3920 (2020) 408 (2018) 1710 418 476 556 1300 3080 3470 3850
2021-01-19 06:30 3.92 743 3920 (2020) 408 (2018) 1710 418 476 556 1300 3080 3470 3850
2021-01-19 05:30 3.92 743 3920 (2020) 408 (2018) 1710 418 476 556 1300 3080 3470 3850
2021-01-19 04:30 3.92 743 3920 (2020) 408 (2018) 1710 418 476 556 1300 3080 3470 3850
2021-01-19 03:30 3.92 743 3920 (2020) 408 (2018) 1710 418 476 556 1300 3080 3470 3850
2021-01-19 02:30 3.93 748 3920 (2020) 408 (2018) 1710 418 476 556 1300 3080 3470 3850
2021-01-19 01:30 3.92 743 3920 (2020) 408 (2018) 1710 418 476 556 1300 3080 3470 3850
2021-01-19 00:30 3.92 743 3920 (2020) 408 (2018) 1710 418 476 556 1300 3080 3470 3850
2021-01-18 23:30 3.93 748 3730 (2020) 381 (2011) 1630 390 473 568 1060 3100 3480 3720
2021-01-18 22:30 3.93 748 3730 (2020) 381 (2011) 1630 390 473 568 1060 3100 3480 3720
2021-01-18 21:30 3.93 748 3730 (2020) 381 (2011) 1630 390 473 568 1060 3100 3480 3720
2021-01-18 20:30 3.93 748 3730 (2020) 381 (2011) 1630 390 473 568 1060 3100 3480 3720
2021-01-18 19:30 3.93 748 3730 (2020) 381 (2011) 1630 390 473 568 1060 3100 3480 3720
2021-01-18 18:30 3.93 748 3730 (2020) 381 (2011) 1630 390 473 568 1060 3100 3480 3720
2021-01-18 17:30 3.93 748 3730 (2020) 381 (2011) 1630 390 473 568 1060 3100 3480 3720
2021-01-18 16:30 3.94 754 3730 (2020) 381 (2011) 1630 390 473 568 1060 3100 3480 3720
2021-01-18 15:30 3.94 754 3730 (2020) 381 (2011) 1630 390 473 568 1060 3100 3480 3720
2021-01-18 14:30 3.94 754 3730 (2020) 381 (2011) 1630 390 473 568 1060 3100 3480 3720
2021-01-18 13:30 3.94 754 3730 (2020) 381 (2011) 1630 390 473 568 1060 3100 3480 3720
2021-01-18 12:30 3.94 754 3730 (2020) 381 (2011) 1630 390 473 568 1060 3100 3480 3720
2021-01-18 11:30 3.94 754 3730 (2020) 381 (2011) 1630 390 473 568 1060 3100 3480 3720
2021-01-18 10:30 3.94 754 3730 (2020) 381 (2011) 1630 390 473 568 1060 3100 3480 3720
2021-01-18 09:30 3.94 754 3730 (2020) 381 (2011) 1630 390 473 568 1060 3100 3480 3720
2021-01-18 08:30 3.94 754 3730 (2020) 381 (2011) 1630 390 473 568 1060 3100 3480 3720
2021-01-18 07:30 3.94 754 3730 (2020) 381 (2011) 1630 390 473 568 1060 3100 3480 3720
2021-01-18 06:30 3.94 754 3730 (2020) 381 (2011) 1630 390 473 568 1060 3100 3480 3720
2021-01-18 05:30 3.94 754 3730 (2020) 381 (2011) 1630 390 473 568 1060 3100 3480 3720
2021-01-18 04:30 3.94 754 3730 (2020) 381 (2011) 1630 390 473 568 1060 3100 3480 3720
2021-01-18 03:30 3.94 754 3730 (2020) 381 (2011) 1630 390 473 568 1060 3100 3480 3720
2021-01-18 02:30 3.94 754 3730 (2020) 381 (2011) 1630 390 473 568 1060 3100 3480 3720
2021-01-18 01:30 3.95 760 3730 (2020) 381 (2011) 1630 390 473 568 1060 3100 3480 3720
2021-01-18 00:30 3.95 760 3730 (2020) 381 (2011) 1630 390 473 568 1060 3100 3480 3720
2021-01-17 23:30 3.95 760 3750 (2016) 365 (2011) 1630 382 482 578 901 3030 3320 3720
2021-01-17 22:30 3.95 760 3750 (2016) 365 (2011) 1630 382 482 578 901 3030 3320 3720
2021-01-17 21:30 3.95 760 3750 (2016) 365 (2011) 1630 382 482 578 901 3030 3320 3720
2021-01-17 20:30 3.95 760 3750 (2016) 365 (2011) 1630 382 482 578 901 3030 3320 3720
2021-01-17 19:30 3.95 760 3750 (2016) 365 (2011) 1630 382 482 578 901 3030 3320 3720
2021-01-17 18:30 3.96 766 3750 (2016) 365 (2011) 1630 382 482 578 901 3030 3320 3720
2021-01-17 17:30 3.96 766 3750 (2016) 365 (2011) 1630 382 482 578 901 3030 3320 3720
2021-01-17 16:30 3.96 766 3750 (2016) 365 (2011) 1630 382 482 578 901 3030 3320 3720
2021-01-17 15:30 3.96 766 3750 (2016) 365 (2011) 1630 382 482 578 901 3030 3320 3720
2021-01-17 14:30 3.96 766 3750 (2016) 365 (2011) 1630 382 482 578 901 3030 3320 3720
2021-01-17 13:30 3.97 772 3750 (2016) 365 (2011) 1630 382 482 578 901 3030 3320 3720
2021-01-17 12:30 3.97 772 3750 (2016) 365 (2011) 1630 382 482 578 901 3030 3320 3720
2021-01-17 11:30 3.97 772 3750 (2016) 365 (2011) 1630 382 482 578 901 3030 3320 3720
2021-01-17 10:30 3.97 772 3750 (2016) 365 (2011) 1630 382 482 578 901 3030 3320 3720
2021-01-17 09:30 3.97 772 3750 (2016) 365 (2011) 1630 382 482 578 901 3030 3320 3720
2021-01-17 08:30 3.97 772 3750 (2016) 365 (2011) 1630 382 482 578 901 3030 3320 3720
2021-01-17 07:30 3.96 766 3750 (2016) 365 (2011) 1630 382 482 578 901 3030 3320 3720
2021-01-17 06:30 3.96 766 3750 (2016) 365 (2011) 1630 382 482 578 901 3030 3320 3720
2021-01-17 05:30 3.97 772 3750 (2016) 365 (2011) 1630 382 482 578 901 3030 3320 3720
2021-01-17 04:30 3.97 772 3750 (2016) 365 (2011) 1630 382 482 578 901 3030 3320 3720
2021-01-17 03:30 3.97 772 3750 (2016) 365 (2011) 1630 382 482 578 901 3030 3320 3720
2021-01-17 02:30 3.97 772 3750 (2016) 365 (2011) 1630 382 482 578 901 3030 3320 3720
2021-01-17 01:30 3.97 772 3750 (2016) 365 (2011) 1630 382 482 578 901 3030 3320 3720
2021-01-16 22:30 3.98 777 3790 (2016) 368 (2011) 1560 408 545 595 898 2730 3140 3670
2021-01-16 21:30 3.98 777 3790 (2016) 368 (2011) 1560 408 545 595 898 2730 3140 3670
2021-01-16 20:30 3.98 777 3790 (2016) 368 (2011) 1560 408 545 595 898 2730 3140 3670
2021-01-16 19:30 3.98 777 3790 (2016) 368 (2011) 1560 408 545 595 898 2730 3140 3670
2021-01-16 18:30 3.99 783 3790 (2016) 368 (2011) 1560 408 545 595 898 2730 3140 3670
2021-01-16 17:30 3.99 783 3790 (2016) 368 (2011) 1560 408 545 595 898 2730 3140 3670
2021-01-16 16:30 3.99 783 3790 (2016) 368 (2011) 1560 408 545 595 898 2730 3140 3670
2021-01-16 15:30 3.99 783 3790 (2016) 368 (2011) 1560 408 545 595 898 2730 3140 3670
2021-01-16 14:30 4.00 789 3790 (2016) 368 (2011) 1560 408 545 595 898 2730 3140 3670
2021-01-16 13:30 4.00 789 3790 (2016) 368 (2011) 1560 408 545 595 898 2730 3140 3670
2021-01-16 12:30 4.00 789 3790 (2016) 368 (2011) 1560 408 545 595 898 2730 3140 3670
2021-01-16 11:30 4.01 795 3790 (2016) 368 (2011) 1560 408 545 595 898 2730 3140 3670
2021-01-16 10:30 4.01 795 3790 (2016) 368 (2011) 1560 408 545 595 898 2730 3140 3670
2021-01-16 09:30 4.01 795 3790 (2016) 368 (2011) 1560 408 545 595 898 2730 3140 3670
2021-01-16 08:30 4.01 795 3790 (2016) 368 (2011) 1560 408 545 595 898 2730 3140 3670
2021-01-16 07:30 4.02 801 3790 (2016) 368 (2011) 1560 408 545 595 898 2730 3140 3670
2021-01-16 06:30 4.03 807 3790 (2016) 368 (2011) 1560 408 545 595 898 2730 3140 3670
2021-01-16 05:30 4.03 807 3790 (2016) 368 (2011) 1560 408 545 595 898 2730 3140 3670
2021-01-16 04:30 4.04 813 3790 (2016) 368 (2011) 1560 408 545 595 898 2730 3140 3670
2021-01-16 03:30 4.05 819 3790 (2016) 368 (2011) 1560 408 545 595 898 2730 3140 3670
2021-01-16 02:30 4.06 825 3790 (2016) 368 (2011) 1560 408 545 595 898 2730 3140 3670
2021-01-16 01:30 4.07 831 3790 (2016) 368 (2011) 1560 408 545 595 898 2730 3140 3670
2021-01-16 00:30 4.09 843 3790 (2016) 368 (2011) 1560 408 545 595 898 2730 3140 3670
2021-01-15 23:30 4.10 849 3830 (2016) 379 (2011) 1430 420 572 621 882 2470 2700 3510
2021-01-15 22:30 4.11 855 3830 (2016) 379 (2011) 1430 420 572 621 882 2470 2700 3510
2021-01-15 21:30 4.12 861 3830 (2016) 379 (2011) 1430 420 572 621 882 2470 2700 3510
2021-01-15 20:30 4.12 861 3830 (2016) 379 (2011) 1430 420 572 621 882 2470 2700 3510
2021-01-15 19:30 4.12 861 3830 (2016) 379 (2011) 1430 420 572 621 882 2470 2700 3510
2021-01-15 18:30 4.12 861 3830 (2016) 379 (2011) 1430 420 572 621 882 2470 2700 3510
2021-01-15 17:30 4.12 861 3830 (2016) 379 (2011) 1430 420 572 621 882 2470 2700 3510
2021-01-15 16:30 4.13 867 3830 (2016) 379 (2011) 1430 420 572 621 882 2470 2700 3510
2021-01-15 15:30 4.13 867 3830 (2016) 379 (2011) 1430 420 572 621 882 2470 2700 3510
2021-01-15 14:30 4.13 867 3830 (2016) 379 (2011) 1430 420 572 621 882 2470 2700 3510
2021-01-15 13:30 4.13 867 3830 (2016) 379 (2011) 1430 420 572 621 882 2470 2700 3510
2021-01-15 12:30 4.13 867 3830 (2016) 379 (2011) 1430 420 572 621 882 2470 2700 3510
2021-01-15 11:30 4.13 867 3830 (2016) 379 (2011) 1430 420 572 621 882 2470 2700 3510
2021-01-15 10:30 4.14 873 3830 (2016) 379 (2011) 1430 420 572 621 882 2470 2700 3510
2021-01-15 09:30 4.13 867 3830 (2016) 379 (2011) 1430 420 572 621 882 2470 2700 3510
2021-01-15 08:30 4.13 867 3830 (2016) 379 (2011) 1430 420 572 621 882 2470 2700 3510
2021-01-15 07:30 4.13 867 3830 (2016) 379 (2011) 1430 420 572 621 882 2470 2700 3510
2021-01-15 06:30 4.13 867 3830 (2016) 379 (2011) 1430 420 572 621 882 2470 2700 3510
2021-01-15 05:30 4.13 867 3830 (2016) 379 (2011) 1430 420 572 621 882 2470 2700 3510
2021-01-15 04:30 4.13 867 3830 (2016) 379 (2011) 1430 420 572 621 882 2470 2700 3510
2021-01-15 03:30 4.14 873 3830 (2016) 379 (2011) 1430 420 572 621 882 2470 2700 3510
2021-01-15 02:30 4.14 873 3830 (2016) 379 (2011) 1430 420 572 621 882 2470 2700 3510
2021-01-15 01:30 4.14 873 3830 (2016) 379 (2011) 1430 420 572 621 882 2470 2700 3510
2021-01-15 00:30 4.14 873 3830 (2016) 379 (2011) 1430 420 572 621 882 2470 2700 3510
2021-01-14 23:30 4.14 873 3860 (2016) 418 (2011) 1410 446 529 590 892 2120 2500 3550
2021-01-14 22:30 4.15 879 3860 (2016) 418 (2011) 1410 446 529 590 892 2120 2500 3550
2021-01-14 21:30 4.15 879 3860 (2016) 418 (2011) 1410 446 529 590 892 2120 2500 3550
2021-01-14 20:30 4.15 879 3860 (2016) 418 (2011) 1410 446 529 590 892 2120 2500 3550
2021-01-14 19:30 4.15 879 3860 (2016) 418 (2011) 1410 446 529 590 892 2120 2500 3550
2021-01-14 18:30 4.15 879 3860 (2016) 418 (2011) 1410 446 529 590 892 2120 2500 3550
2021-01-14 17:30 4.15 879 3860 (2016) 418 (2011) 1410 446 529 590 892 2120 2500 3550
2021-01-14 16:30 4.16 885 3860 (2016) 418 (2011) 1410 446 529 590 892 2120 2500 3550
2021-01-14 15:30 4.16 885 3860 (2016) 418 (2011) 1410 446 529 590 892 2120 2500 3550
2021-01-14 14:30 4.16 885 3860 (2016) 418 (2011) 1410 446 529 590 892 2120 2500 3550
2021-01-14 13:30 4.17 891 3860 (2016) 418 (2011) 1410 446 529 590 892 2120 2500 3550
2021-01-14 12:30 4.17 891 3860 (2016) 418 (2011) 1410 446 529 590 892 2120 2500 3550
2021-01-14 11:30 4.17 891 3860 (2016) 418 (2011) 1410 446 529 590 892 2120 2500 3550
2021-01-14 10:30 4.17 891 3860 (2016) 418 (2011) 1410 446 529 590 892 2120 2500 3550
2021-01-14 09:30 4.17 891 3860 (2016) 418 (2011) 1410 446 529 590 892 2120 2500 3550
2021-01-14 08:30 4.17 891 3860 (2016) 418 (2011) 1410 446 529 590 892 2120 2500 3550
2021-01-14 07:30 4.17 891 3860 (2016) 418 (2011) 1410 446 529 590 892 2120 2500 3550
2021-01-14 06:30 4.17 891 3860 (2016) 418 (2011) 1410 446 529 590 892 2120 2500 3550
2021-01-14 05:30 4.18 898 3860 (2016) 418 (2011) 1410 446 529 590 892 2120 2500 3550
2021-01-14 04:30 4.18 898 3860 (2016) 418 (2011) 1410 446 529 590 892 2120 2500 3550
2021-01-14 03:30 4.18 898 3860 (2016) 418 (2011) 1410 446 529 590 892 2120 2500 3550
2021-01-14 02:30 4.19 904 3860 (2016) 418 (2011) 1410 446 529 590 892 2120 2500 3550
2021-01-14 01:30 4.19 904 3860 (2016) 418 (2011) 1410 446 529 590 892 2120 2500 3550
2021-01-14 00:30 4.20 910 3860 (2016) 418 (2011) 1410 446 529 590 892 2120 2500 3550
2021-01-13 23:30 4.20 910 5130 (2013) 434 (2011) 1580 440 480 566 906 1860 2680 4740
2021-01-13 22:30 4.21 916 5130 (2013) 434 (2011) 1580 440 480 566 906 1860 2680 4740
2021-01-13 21:30 4.22 922 5130 (2013) 434 (2011) 1580 440 480 566 906 1860 2680 4740
2021-01-13 20:30 4.23 929 5130 (2013) 434 (2011) 1580 440 480 566 906 1860 2680 4740
2021-01-13 19:30 4.24 935 5130 (2013) 434 (2011) 1580 440 480 566 906 1860 2680 4740
2021-01-13 18:30 4.26 948 5130 (2013) 434 (2011) 1580 440 480 566 906 1860 2680 4740
2021-01-13 17:30 4.28 960 5130 (2013) 434 (2011) 1580 440 480 566 906 1860 2680 4740
2021-01-13 16:30 4.29 967 5130 (2013) 434 (2011) 1580 440 480 566 906 1860 2680 4740
2021-01-13 15:30 4.31 979 5130 (2013) 434 (2011) 1580 440 480 566 906 1860 2680 4740
2021-01-13 14:30 4.33 992 5130 (2013) 434 (2011) 1580 440 480 566 906 1860 2680 4740
2021-01-13 13:30 4.33 992 5130 (2013) 434 (2011) 1580 440 480 566 906 1860 2680 4740
2021-01-13 12:30 4.33 992 5130 (2013) 434 (2011) 1580 440 480 566 906 1860 2680 4740
2021-01-13 11:30 4.33 992 5130 (2013) 434 (2011) 1580 440 480 566 906 1860 2680 4740
2021-01-13 10:30 4.33 992 5130 (2013) 434 (2011) 1580 440 480 566 906 1860 2680 4740
2021-01-13 09:30 4.33 992 5130 (2013) 434 (2011) 1580 440 480 566 906 1860 2680 4740
2021-01-13 08:30 4.33 992 5130 (2013) 434 (2011) 1580 440 480 566 906 1860 2680 4740
2021-01-13 07:30 4.33 992 5130 (2013) 434 (2011) 1580 440 480 566 906 1860 2680 4740
2021-01-13 06:30 4.33 992 5130 (2013) 434 (2011) 1580 440 480 566 906 1860 2680 4740
2021-01-13 05:30 4.34 999 5130 (2013) 434 (2011) 1580 440 480 566 906 1860 2680 4740
2021-01-13 04:30 4.34 999 5130 (2013) 434 (2011) 1580 440 480 566 906 1860 2680 4740
2021-01-13 03:30 4.34 999 5130 (2013) 434 (2011) 1580 440 480 566 906 1860 2680 4740
2021-01-13 02:30 4.34 999 5130 (2013) 434 (2011) 1580 440 480 566 906 1860 2680 4740
2021-01-13 01:30 4.34 999 5130 (2013) 434 (2011) 1580 440 480 566 906 1860 2680 4740
2021-01-13 00:30 4.35 1010 5130 (2013) 434 (2011) 1580 440 480 566 906 1860 2680 4740
2021-01-12 23:30 4.35 1010 3860 (2016) 399 (2018) 1330 411 476 532 848 1700 2350 3680
2021-01-12 22:30 4.35 1010 3860 (2016) 399 (2018) 1330 411 476 532 848 1700 2350 3680
2021-01-12 21:30 4.35 1010 3860 (2016) 399 (2018) 1330 411 476 532 848 1700 2350 3680
2021-01-12 20:30 4.35 1010 3860 (2016) 399 (2018) 1330 411 476 532 848 1700 2350 3680
2021-01-12 19:30 4.35 1010 3860 (2016) 399 (2018) 1330 411 476 532 848 1700 2350 3680
2021-01-12 18:30 4.36 1010 3860 (2016) 399 (2018) 1330 411 476 532 848 1700 2350 3680
2021-01-12 17:30 4.36 1010 3860 (2016) 399 (2018) 1330 411 476 532 848 1700 2350 3680
2021-01-12 16:30 4.37 1020 3860 (2016) 399 (2018) 1330 411 476 532 848 1700 2350 3680
2021-01-12 15:30 4.37 1020 3860 (2016) 399 (2018) 1330 411 476 532 848 1700 2350 3680
2021-01-12 14:30 4.37 1020 3860 (2016) 399 (2018) 1330 411 476 532 848 1700 2350 3680
2021-01-12 13:30 4.37 1020 3860 (2016) 399 (2018) 1330 411 476 532 848 1700 2350 3680
2021-01-12 12:30 4.37 1020 3860 (2016) 399 (2018) 1330 411 476 532 848 1700 2350 3680
2021-01-12 11:30 4.38 1020 3860 (2016) 399 (2018) 1330 411 476 532 848 1700 2350 3680
2021-01-12 10:30 4.38 1020 3860 (2016) 399 (2018) 1330 411 476 532 848 1700 2350 3680
2021-01-12 09:30 4.37 1020 3860 (2016) 399 (2018) 1330 411 476 532 848 1700 2350 3680
2021-01-12 08:30 4.38 1020 3860 (2016) 399 (2018) 1330 411 476 532 848 1700 2350 3680
2021-01-12 07:30 4.38 1020 3860 (2016) 399 (2018) 1330 411 476 532 848 1700 2350 3680
2021-01-12 06:30 4.39 1030 3860 (2016) 399 (2018) 1330 411 476 532 848 1700 2350 3680
2021-01-12 05:30 4.39 1030 3860 (2016) 399 (2018) 1330 411 476 532 848 1700 2350 3680
2021-01-12 04:30 4.39 1030 3860 (2016) 399 (2018) 1330 411 476 532 848 1700 2350 3680
2021-01-12 03:30 4.40 1040 3860 (2016) 399 (2018) 1330 411 476 532 848 1700 2350 3680
2021-01-12 02:30 4.40 1040 3860 (2016) 399 (2018) 1330 411 476 532 848 1700 2350 3680
2021-01-12 01:30 4.41 1040 3860 (2016) 399 (2018) 1330 411 476 532 848 1700 2350 3680
2021-01-12 00:30 4.42 1050 3860 (2016) 399 (2018) 1330 411 476 532 848 1700 2350 3680
2021-01-11 23:30 4.43 1060 11200 (2020) 389 (2018) 2130 406 490 539 988 2180 2940 9010
2021-01-11 22:30 4.44 1060 11200 (2020) 389 (2018) 2130 406 490 539 988 2180 2940 9010
2021-01-11 21:30 4.45 1070 11200 (2020) 389 (2018) 2130 406 490 539 988 2180 2940 9010
2021-01-11 20:30 4.47 1080 11200 (2020) 389 (2018) 2130 406 490 539 988 2180 2940 9010
2021-01-11 19:30 4.49 1100 11200 (2020) 389 (2018) 2130 406 490 539 988 2180 2940 9010
2021-01-11 18:30 4.51 1110 11200 (2020) 389 (2018) 2130 406 490 539 988 2180 2940 9010
2021-01-11 17:30 4.54 1130 11200 (2020) 389 (2018) 2130 406 490 539 988 2180 2940 9010
2021-01-11 16:30 4.57 1150 11200 (2020) 389 (2018) 2130 406 490 539 988 2180 2940 9010
2021-01-11 15:30 4.61 1180 11200 (2020) 389 (2018) 2130 406 490 539 988 2180 2940 9010
2021-01-11 14:30 4.64 1200 11200 (2020) 389 (2018) 2130 406 490 539 988 2180 2940 9010
2021-01-11 13:30 4.66 1210 11200 (2020) 389 (2018) 2130 406 490 539 988 2180 2940 9010
2021-01-11 12:30 4.67 1220 11200 (2020) 389 (2018) 2130 406 490 539 988 2180 2940 9010
2021-01-11 11:30 4.67 1220 11200 (2020) 389 (2018) 2130 406 490 539 988 2180 2940 9010
2021-01-11 10:30 4.68 1230 11200 (2020) 389 (2018) 2130 406 490 539 988 2180 2940 9010
2021-01-11 09:30 4.68 1230 11200 (2020) 389 (2018) 2130 406 490 539 988 2180 2940 9010
2021-01-11 08:30 4.68 1230 11200 (2020) 389 (2018) 2130 406 490 539 988 2180 2940 9010
2021-01-11 07:30 4.68 1230 11200 (2020) 389 (2018) 2130 406 490 539 988 2180 2940 9010
2021-01-11 06:30 4.68 1230 11200 (2020) 389 (2018) 2130 406 490 539 988 2180 2940 9010
2021-01-11 05:30 4.69 1230 11200 (2020) 389 (2018) 2130 406 490 539 988 2180 2940 9010
2021-01-11 04:30 4.69 1230 11200 (2020) 389 (2018) 2130 406 490 539 988 2180 2940 9010
2021-01-11 03:30 4.69 1230 11200 (2020) 389 (2018) 2130 406 490 539 988 2180 2940 9010
2021-01-11 02:30 4.69 1230 11200 (2020) 389 (2018) 2130 406 490 539 988 2180 2940 9010
2021-01-11 01:30 4.69 1230 11200 (2020) 389 (2018) 2130 406 490 539 988 2180 2940 9010
2021-01-11 00:30 4.69 1230 11200 (2020) 389 (2018) 2130 406 490 539 988 2180 2940 9010
2021-01-10 23:30 4.70 1240 3940 (2016) 387 (2018) 1400 413 517 579 993 2050 2250 3510
2021-01-10 22:30 4.70 1240 3940 (2016) 387 (2018) 1400 413 517 579 993 2050 2250 3510
2021-01-10 21:30 4.70 1240 3940 (2016) 387 (2018) 1400 413 517 579 993 2050 2250 3510
2021-01-10 20:30 4.70 1240 3940 (2016) 387 (2018) 1400 413 517 579 993 2050 2250 3510
2021-01-10 19:30 4.70 1240 3940 (2016) 387 (2018) 1400 413 517 579 993 2050 2250 3510
2021-01-10 18:30 4.71 1250 3940 (2016) 387 (2018) 1400 413 517 579 993 2050 2250 3510
2021-01-10 17:30 4.71 1250 3940 (2016) 387 (2018) 1400 413 517 579 993 2050 2250 3510
2021-01-10 16:30 4.71 1250 3940 (2016) 387 (2018) 1400 413 517 579 993 2050 2250 3510
2021-01-10 15:30 4.71 1250 3940 (2016) 387 (2018) 1400 413 517 579 993 2050 2250 3510
2021-01-10 14:30 4.71 1250 3940 (2016) 387 (2018) 1400 413 517 579 993 2050 2250 3510
2021-01-10 13:30 4.72 1250 3940 (2016) 387 (2018) 1400 413 517 579 993 2050 2250 3510
2021-01-10 12:30 4.72 1250 3940 (2016) 387 (2018) 1400 413 517 579 993 2050 2250 3510
2021-01-10 11:30 4.72 1250 3940 (2016) 387 (2018) 1400 413 517 579 993 2050 2250 3510
2021-01-10 10:30 4.72 1250 3940 (2016) 387 (2018) 1400 413 517 579 993 2050 2250 3510
2021-01-10 09:30 4.72 1250 3940 (2016) 387 (2018) 1400 413 517 579 993 2050 2250 3510
2021-01-10 08:30 4.73 1260 3940 (2016) 387 (2018) 1400 413 517 579 993 2050 2250 3510
2021-01-10 07:30 4.73 1260 3940 (2016) 387 (2018) 1400 413 517 579 993 2050 2250 3510
2021-01-10 06:30 4.73 1260 3940 (2016) 387 (2018) 1400 413 517 579 993 2050 2250 3510
2021-01-10 05:30 4.74 1270 3940 (2016) 387 (2018) 1400 413 517 579 993 2050 2250 3510
2021-01-10 04:30 4.74 1270 3940 (2016) 387 (2018) 1400 413 517 579 993 2050 2250 3510
2021-01-10 03:30 4.74 1270 3940 (2016) 387 (2018) 1400 413 517 579 993 2050 2250 3510
2021-01-10 02:30 4.74 1270 3940 (2016) 387 (2018) 1400 413 517 579 993 2050 2250 3510
2021-01-10 01:30 4.75 1270 3940 (2016) 387 (2018) 1400 413 517 579 993 2050 2250 3510
2021-01-10 00:30 4.75 1270 3940 (2016) 387 (2018) 1400 413 517 579 993 2050 2250 3510
2021-01-09 23:30 4.76 1280 3980 (2016) 408 (2018) 1400 426 516 585 934 2350 2570 3560
2021-01-09 22:30 4.76 1280 3980 (2016) 408 (2018) 1400 426 516 585 934 2350 2570 3560
2021-01-09 20:30 4.77 1290 3980 (2016) 408 (2018) 1400 426 516 585 934 2350 2570 3560
2021-01-09 19:30 4.77 1290 3980 (2016) 408 (2018) 1400 426 516 585 934 2350 2570 3560
2021-01-09 18:30 4.78 1300 3980 (2016) 408 (2018) 1400 426 516 585 934 2350 2570 3560
2021-01-09 17:30 4.78 1300 3980 (2016) 408 (2018) 1400 426 516 585 934 2350 2570 3560
2021-01-09 16:30 4.78 1300 3980 (2016) 408 (2018) 1400 426 516 585 934 2350 2570 3560
2021-01-09 15:30 4.79 1300 3980 (2016) 408 (2018) 1400 426 516 585 934 2350 2570 3560
2021-01-09 14:30 4.79 1300 3980 (2016) 408 (2018) 1400 426 516 585 934 2350 2570 3560
2021-01-09 13:30 4.80 1310 3980 (2016) 408 (2018) 1400 426 516 585 934 2350 2570 3560
2021-01-09 12:30 4.81 1320 3980 (2016) 408 (2018) 1400 426 516 585 934 2350 2570 3560
2021-01-09 11:30 4.81 1320 3980 (2016) 408 (2018) 1400 426 516 585 934 2350 2570 3560
2021-01-09 10:30 4.82 1320 3980 (2016) 408 (2018) 1400 426 516 585 934 2350 2570 3560
2021-01-09 09:30 4.82 1320 3980 (2016) 408 (2018) 1400 426 516 585 934 2350 2570 3560
2021-01-09 08:30 4.83 1330 3980 (2016) 408 (2018) 1400 426 516 585 934 2350 2570 3560
2021-01-09 07:30 4.84 1340 3980 (2016) 408 (2018) 1400 426 516 585 934 2350 2570 3560
2021-01-09 06:30 4.85 1340 3980 (2016) 408 (2018) 1400 426 516 585 934 2350 2570 3560
2021-01-09 05:30 4.86 1350 3980 (2016) 408 (2018) 1400 426 516 585 934 2350 2570 3560
2021-01-09 04:30 4.87 1360 3980 (2016) 408 (2018) 1400 426 516 585 934 2350 2570 3560
2021-01-09 03:30 4.88 1370 3980 (2016) 408 (2018) 1400 426 516 585 934 2350 2570 3560
2021-01-09 02:30 4.90 1380 3980 (2016) 408 (2018) 1400 426 516 585 934 2350 2570 3560
2021-01-09 01:30 4.92 1400 3980 (2016) 408 (2018) 1400 426 516 585 934 2350 2570 3560
2021-01-09 00:30 4.94 1410 3980 (2016) 408 (2018) 1400 426 516 585 934 2350 2570 3560
2021-01-08 23:30 4.96 1420 3880 (2016) 420 (2018) 1430 436 520 600 948 2500 2680 3530
2021-01-08 22:30 4.99 1450 3880 (2016) 420 (2018) 1430 436 520 600 948 2500 2680 3530
2021-01-08 21:30 5.03 1480 3880 (2016) 420 (2018) 1430 436 520 600 948 2500 2680 3530
2021-01-08 20:30 5.07 1500 3880 (2016) 420 (2018) 1430 436 520 600 948 2500 2680 3530
2021-01-08 19:30 5.13 1550 3880 (2016) 420 (2018) 1430 436 520 600 948 2500 2680 3530
2021-01-08 18:30 5.20 1600 3880 (2016) 420 (2018) 1430 436 520 600 948 2500 2680 3530
2021-01-08 17:30 5.28 1660 3880 (2016) 420 (2018) 1430 436 520 600 948 2500 2680 3530
2021-01-08 16:30 5.39 1740 3880 (2016) 420 (2018) 1430 436 520 600 948 2500 2680 3530
2021-01-08 15:30 5.50 1820 3880 (2016) 420 (2018) 1430 436 520 600 948 2500 2680 3530
2021-01-08 14:30 5.61 1910 3880 (2016) 420 (2018) 1430 436 520 600 948 2500 2680 3530
2021-01-08 13:30 5.70 1980 3880 (2016) 420 (2018) 1430 436 520 600 948 2500 2680 3530
2021-01-08 12:30 5.74 2010 3880 (2016) 420 (2018) 1430 436 520 600 948 2500 2680 3530
2021-01-08 11:30 5.75 2020 3880 (2016) 420 (2018) 1430 436 520 600 948 2500 2680 3530
2021-01-08 10:30 5.76 2030 3880 (2016) 420 (2018) 1430 436 520 600 948 2500 2680 3530
2021-01-08 09:30 5.76 2030 3880 (2016) 420 (2018) 1430 436 520 600 948 2500 2680 3530
2021-01-08 08:30 5.76 2030 3880 (2016) 420 (2018) 1430 436 520 600 948 2500 2680 3530
2021-01-08 07:30 5.77 2040 3880 (2016) 420 (2018) 1430 436 520 600 948 2500 2680 3530
2021-01-08 06:30 5.78 2050 3880 (2016) 420 (2018) 1430 436 520 600 948 2500 2680 3530
2021-01-08 05:30 5.78 2050 3880 (2016) 420 (2018) 1430 436 520 600 948 2500 2680 3530
2021-01-08 04:30 5.78 2050 3880 (2016) 420 (2018) 1430 436 520 600 948 2500 2680 3530
2021-01-08 03:30 5.79 2050 3880 (2016) 420 (2018) 1430 436 520 600 948 2500 2680 3530
2021-01-08 02:30 5.79 2050 3880 (2016) 420 (2018) 1430 436 520 600 948 2500 2680 3530
2021-01-08 01:30 5.80 2060 3880 (2016) 420 (2018) 1430 436 520 600 948 2500 2680 3530
2021-01-08 00:30 5.81 2070 3880 (2016) 420 (2018) 1430 436 520 600 948 2500 2680 3530
2021-01-07 23:30 5.81 2070 3830 (2016) 409 (2018) 1450 438 534 607 1020 2300 2490 3510
2021-01-07 22:30 5.82 2080 3830 (2016) 409 (2018) 1450 438 534 607 1020 2300 2490 3510
2021-01-07 21:30 5.84 2100 3830 (2016) 409 (2018) 1450 438 534 607 1020 2300 2490 3510
2021-01-07 20:30 5.85 2100 3830 (2016) 409 (2018) 1450 438 534 607 1020 2300 2490 3510
2021-01-07 19:30 5.87 2120 3830 (2016) 409 (2018) 1450 438 534 607 1020 2300 2490 3510
2021-01-07 18:30 5.89 2140 3830 (2016) 409 (2018) 1450 438 534 607 1020 2300 2490 3510
2021-01-07 17:30 5.92 2160 3830 (2016) 409 (2018) 1450 438 534 607 1020 2300 2490 3510
2021-01-07 16:30 5.95 2190 3830 (2016) 409 (2018) 1450 438 534 607 1020 2300 2490 3510
2021-01-07 15:30 6.00 2230 3830 (2016) 409 (2018) 1450 438 534 607 1020 2300 2490 3510
2021-01-07 14:30 6.04 2260 3830 (2016) 409 (2018) 1450 438 534 607 1020 2300 2490 3510
2021-01-07 13:30 6.06 2280 3830 (2016) 409 (2018) 1450 438 534 607 1020 2300 2490 3510
2021-01-07 12:30 6.08 2290 3830 (2016) 409 (2018) 1450 438 534 607 1020 2300 2490 3510
2021-01-07 11:30 6.08 2290 3830 (2016) 409 (2018) 1450 438 534 607 1020 2300 2490 3510
2021-01-07 10:30 6.07 2290 3830 (2016) 409 (2018) 1450 438 534 607 1020 2300 2490 3510
2021-01-07 09:30 6.08 2290 3830 (2016) 409 (2018) 1450 438 534 607 1020 2300 2490 3510
2021-01-07 08:30 6.07 2290 3830 (2016) 409 (2018) 1450 438 534 607 1020 2300 2490 3510
2021-01-07 07:30 6.07 2290 3830 (2016) 409 (2018) 1450 438 534 607 1020 2300 2490 3510
2021-01-07 06:30 6.06 2280 3830 (2016) 409 (2018) 1450 438 534 607 1020 2300 2490 3510
2021-01-07 05:30 6.07 2290 3830 (2016) 409 (2018) 1450 438 534 607 1020 2300 2490 3510
2021-01-07 04:30 6.06 2280 3830 (2016) 409 (2018) 1450 438 534 607 1020 2300 2490 3510
2021-01-07 03:30 6.06 2280 3830 (2016) 409 (2018) 1450 438 534 607 1020 2300 2490 3510
2021-01-07 02:30 6.06 2280 3830 (2016) 409 (2018) 1450 438 534 607 1020 2300 2490 3510
2021-01-07 01:30 6.06 2280 3830 (2016) 409 (2018) 1450 438 534 607 1020 2300 2490 3510
2021-01-07 00:30 6.06 2280 3830 (2016) 409 (2018) 1450 438 534 607 1020 2300 2490 3510
2021-01-06 23:30 6.06 2280 3850 (2016) 412 (2018) 1500 453 649 728 1190 2390 2420 3420
2021-01-06 22:30 6.07 2290 3850 (2016) 412 (2018) 1500 453 649 728 1190 2390 2420 3420
2021-01-06 21:30 6.07 2290 3850 (2016) 412 (2018) 1500 453 649 728 1190 2390 2420 3420
2021-01-06 20:30 6.07 2290 3850 (2016) 412 (2018) 1500 453 649 728 1190 2390 2420 3420
2021-01-06 19:30 6.07 2290 3850 (2016) 412 (2018) 1500 453 649 728 1190 2390 2420 3420
2021-01-06 18:30 6.07 2290 3850 (2016) 412 (2018) 1500 453 649 728 1190 2390 2420 3420
2021-01-06 17:30 6.07 2290 3850 (2016) 412 (2018) 1500 453 649 728 1190 2390 2420 3420
2021-01-06 16:30 6.08 2290 3850 (2016) 412 (2018) 1500 453 649 728 1190 2390 2420 3420
2021-01-06 15:30 6.08 2290 3850 (2016) 412 (2018) 1500 453 649 728 1190 2390 2420 3420
2021-01-06 14:30 6.08 2290 3850 (2016) 412 (2018) 1500 453 649 728 1190 2390 2420 3420
2021-01-06 13:30 6.08 2290 3850 (2016) 412 (2018) 1500 453 649 728 1190 2390 2420 3420
2021-01-06 12:30 6.08 2290 3850 (2016) 412 (2018) 1500 453 649 728 1190 2390 2420 3420
2021-01-06 11:30 6.08 2290 3850 (2016) 412 (2018) 1500 453 649 728 1190 2390 2420 3420
2021-01-06 10:30 6.08 2290 3850 (2016) 412 (2018) 1500 453 649 728 1190 2390 2420 3420
2021-01-06 09:30 6.08 2290 3850 (2016) 412 (2018) 1500 453 649 728 1190 2390 2420 3420
2021-01-06 08:30 6.08 2290 3850 (2016) 412 (2018) 1500 453 649 728 1190 2390 2420 3420
2021-01-06 07:30 6.09 2300 3850 (2016) 412 (2018) 1500 453 649 728 1190 2390 2420 3420
2021-01-06 06:30 6.09 2300 3850 (2016) 412 (2018) 1500 453 649 728 1190 2390 2420 3420
2021-01-06 05:30 6.09 2300 3850 (2016) 412 (2018) 1500 453 649 728 1190 2390 2420 3420
2021-01-06 04:30 6.09 2300 3850 (2016) 412 (2018) 1500 453 649 728 1190 2390 2420 3420
2021-01-06 03:30 6.09 2300 3850 (2016) 412 (2018) 1500 453 649 728 1190 2390 2420 3420
2021-01-06 02:30 6.09 2300 3850 (2016) 412 (2018) 1500 453 649 728 1190 2390 2420 3420
2021-01-06 01:30 6.09 2300 3850 (2016) 412 (2018) 1500 453 649 728 1190 2390 2420 3420
2021-01-06 00:30 6.09 2300 3850 (2016) 412 (2018) 1500 453 649 728 1190 2390 2420 3420
2021-01-05 23:30 6.10 2310 3890 (2016) 466 (2018) 1620 489 660 742 1350 2500 2750 3650
2021-01-05 22:30 6.09 2300 3890 (2016) 466 (2018) 1620 489 660 742 1350 2500 2750 3650
2021-01-05 21:30 6.10 2310 3890 (2016) 466 (2018) 1620 489 660 742 1350 2500 2750 3650
2021-01-05 20:30 6.10 2310 3890 (2016) 466 (2018) 1620 489 660 742 1350 2500 2750 3650
2021-01-05 19:30 6.09 2300 3890 (2016) 466 (2018) 1620 489 660 742 1350 2500 2750 3650
2021-01-05 18:30 6.10 2310 3890 (2016) 466 (2018) 1620 489 660 742 1350 2500 2750 3650
2021-01-05 17:30 6.09 2300 3890 (2016) 466 (2018) 1620 489 660 742 1350 2500 2750 3650
2021-01-05 16:30 6.09 2300 3890 (2016) 466 (2018) 1620 489 660 742 1350 2500 2750 3650
2021-01-05 15:30 6.09 2300 3890 (2016) 466 (2018) 1620 489 660 742 1350 2500 2750 3650
2021-01-05 14:30 6.08 2290 3890 (2016) 466 (2018) 1620 489 660 742 1350 2500 2750 3650
2021-01-05 13:30 6.08 2290 3890 (2016) 466 (2018) 1620 489 660 742 1350 2500 2750 3650
2021-01-05 12:30 6.07 2290 3890 (2016) 466 (2018) 1620 489 660 742 1350 2500 2750 3650
2021-01-05 11:30 6.06 2280 3890 (2016) 466 (2018) 1620 489 660 742 1350 2500 2750 3650
2021-01-05 10:30 6.05 2270 3890 (2016) 466 (2018) 1620 489 660 742 1350 2500 2750 3650
2021-01-05 09:30 6.04 2260 3890 (2016) 466 (2018) 1620 489 660 742 1350 2500 2750 3650
2021-01-05 08:30 6.03 2250 3890 (2016) 466 (2018) 1620 489 660 742 1350 2500 2750 3650
2021-01-05 07:30 6.01 2240 3890 (2016) 466 (2018) 1620 489 660 742 1350 2500 2750 3650
2021-01-05 06:30 5.99 2220 3890 (2016) 466 (2018) 1620 489 660 742 1350 2500 2750 3650
2021-01-05 05:30 5.97 2200 3890 (2016) 466 (2018) 1620 489 660 742 1350 2500 2750 3650
2021-01-05 04:30 5.93 2170 3890 (2016) 466 (2018) 1620 489 660 742 1350 2500 2750 3650
2021-01-05 03:30 5.89 2140 3890 (2016) 466 (2018) 1620 489 660 742 1350 2500 2750 3650
2021-01-05 02:30 5.83 2090 3890 (2016) 466 (2018) 1620 489 660 742 1350 2500 2750 3650
2021-01-05 01:30 5.75 2020 3890 (2016) 466 (2018) 1620 489 660 742 1350 2500 2750 3650
2021-01-05 00:30 5.66 1950 3890 (2016) 466 (2018) 1620 489 660 742 1350 2500 2750 3650
2021-01-04 23:30 5.55 1860 3940 (2016) 474 (2018) 1740 491 573 614 1410 2820 3080 3750
2021-01-04 22:30 5.45 1790 3940 (2016) 474 (2018) 1740 491 573 614 1410 2820 3080 3750
2021-01-04 21:30 5.36 1720 3940 (2016) 474 (2018) 1740 491 573 614 1410 2820 3080 3750
2021-01-04 20:30 5.29 1670 3940 (2016) 474 (2018) 1740 491 573 614 1410 2820 3080 3750
2021-01-04 19:30 5.22 1610 3940 (2016) 474 (2018) 1740 491 573 614 1410 2820 3080 3750
2021-01-04 18:30 5.13 1550 3940 (2016) 474 (2018) 1740 491 573 614 1410 2820 3080 3750
2021-01-04 17:30 5.02 1470 3940 (2016) 474 (2018) 1740 491 573 614 1410 2820 3080 3750
2021-01-04 16:30 4.89 1370 3940 (2016) 474 (2018) 1740 491 573 614 1410 2820 3080 3750
2021-01-04 15:30 4.74 1270 3940 (2016) 474 (2018) 1740 491 573 614 1410 2820 3080 3750
2021-01-04 14:30 4.61 1180 3940 (2016) 474 (2018) 1740 491 573 614 1410 2820 3080 3750
2021-01-04 13:30 4.54 1130 3940 (2016) 474 (2018) 1740 491 573 614 1410 2820 3080 3750
2021-01-04 12:30 4.52 1120 3940 (2016) 474 (2018) 1740 491 573 614 1410 2820 3080 3750
2021-01-04 11:30 4.53 1120 3940 (2016) 474 (2018) 1740 491 573 614 1410 2820 3080 3750
2021-01-04 10:30 4.53 1120 3940 (2016) 474 (2018) 1740 491 573 614 1410 2820 3080 3750
2021-01-04 09:30 4.54 1130 3940 (2016) 474 (2018) 1740 491 573 614 1410 2820 3080 3750
2021-01-04 08:30 4.54 1130 3940 (2016) 474 (2018) 1740 491 573 614 1410 2820 3080 3750
2021-01-04 07:30 4.55 1140 3940 (2016) 474 (2018) 1740 491 573 614 1410 2820 3080 3750
2021-01-04 06:30 4.55 1140 3940 (2016) 474 (2018) 1740 491 573 614 1410 2820 3080 3750
2021-01-04 05:30 4.56 1140 3940 (2016) 474 (2018) 1740 491 573 614 1410 2820 3080 3750
2021-01-04 04:30 4.56 1140 3940 (2016) 474 (2018) 1740 491 573 614 1410 2820 3080 3750
2021-01-04 03:30 4.57 1150 3940 (2016) 474 (2018) 1740 491 573 614 1410 2820 3080 3750
2021-01-04 02:30 4.58 1160 3940 (2016) 474 (2018) 1740 491 573 614 1410 2820 3080 3750
2021-01-04 01:30 4.58 1160 3940 (2016) 474 (2018) 1740 491 573 614 1410 2820 3080 3750
2021-01-04 00:30 4.59 1160 3940 (2016) 474 (2018) 1740 491 573 614 1410 2820 3080 3750
2021-01-03 23:30 4.60 1170 3700 (2016) 436 (2011) 1790 447 488 508 1710 2950 3150 3560
2021-01-03 22:30 4.60 1170 3700 (2016) 436 (2011) 1790 447 488 508 1710 2950 3150 3560
2021-01-03 21:30 4.61 1180 3700 (2016) 436 (2011) 1790 447 488 508 1710 2950 3150 3560
2021-01-03 20:30 4.62 1180 3700 (2016) 436 (2011) 1790 447 488 508 1710 2950 3150 3560
2021-01-03 19:30 4.63 1190 3700 (2016) 436 (2011) 1790 447 488 508 1710 2950 3150 3560
2021-01-03 18:30 4.64 1200 3700 (2016) 436 (2011) 1790 447 488 508 1710 2950 3150 3560
2021-01-03 17:30 4.64 1200 3700 (2016) 436 (2011) 1790 447 488 508 1710 2950 3150 3560
2021-01-03 16:30 4.64 1200 3700 (2016) 436 (2011) 1790 447 488 508 1710 2950 3150 3560
2021-01-03 15:30 4.65 1200 3700 (2016) 436 (2011) 1790 447 488 508 1710 2950 3150 3560
2021-01-03 14:30 4.65 1200 3700 (2016) 436 (2011) 1790 447 488 508 1710 2950 3150 3560
2021-01-03 13:30 4.66 1210 3700 (2016) 436 (2011) 1790 447 488 508 1710 2950 3150 3560
2021-01-03 12:30 4.67 1220 3700 (2016) 436 (2011) 1790 447 488 508 1710 2950 3150 3560
2021-01-03 11:30 4.68 1230 3700 (2016) 436 (2011) 1790 447 488 508 1710 2950 3150 3560
2021-01-03 10:30 4.68 1230 3700 (2016) 436 (2011) 1790 447 488 508 1710 2950 3150 3560
2021-01-03 09:30 4.69 1230 3700 (2016) 436 (2011) 1790 447 488 508 1710 2950 3150 3560
2021-01-03 08:30 4.70 1240 3700 (2016) 436 (2011) 1790 447 488 508 1710 2950 3150 3560
2021-01-03 07:30 4.71 1250 3700 (2016) 436 (2011) 1790 447 488 508 1710 2950 3150 3560
2021-01-03 06:30 4.72 1250 3700 (2016) 436 (2011) 1790 447 488 508 1710 2950 3150 3560
2021-01-03 05:30 4.73 1260 3700 (2016) 436 (2011) 1790 447 488 508 1710 2950 3150 3560
2021-01-03 04:30 4.74 1270 3700 (2016) 436 (2011) 1790 447 488 508 1710 2950 3150 3560
2021-01-03 03:30 4.74 1270 3700 (2016) 436 (2011) 1790 447 488 508 1710 2950 3150 3560
2021-01-03 02:30 4.76 1280 3700 (2016) 436 (2011) 1790 447 488 508 1710 2950 3150 3560
2021-01-03 01:30 4.77 1290 3700 (2016) 436 (2011) 1790 447 488 508 1710 2950 3150 3560
2021-01-03 00:30 4.78 1300 3700 (2016) 436 (2011) 1790 447 488 508 1710 2950 3150 3560
2021-01-02 23:30 4.79 1300 3460 (2016) 421 (2011) 1660 423 450 480 1580 2750 3050 3380
2021-01-02 22:30 4.80 1310 3460 (2016) 421 (2011) 1660 423 450 480 1580 2750 3050 3380
2021-01-02 21:30 4.81 1320 3460 (2016) 421 (2011) 1660 423 450 480 1580 2750 3050 3380
2021-01-02 20:30 4.82 1320 3460 (2016) 421 (2011) 1660 423 450 480 1580 2750 3050 3380
2021-01-02 19:30 4.83 1330 3460 (2016) 421 (2011) 1660 423 450 480 1580 2750 3050 3380
2021-01-02 18:30 4.84 1340 3460 (2016) 421 (2011) 1660 423 450 480 1580 2750 3050 3380
2021-01-02 17:30 4.86 1350 3460 (2016) 421 (2011) 1660 423 450 480 1580 2750 3050 3380
2021-01-02 16:30 4.87 1360 3460 (2016) 421 (2011) 1660 423 450 480 1580 2750 3050 3380
2021-01-02 15:30 4.88 1370 3460 (2016) 421 (2011) 1660 423 450 480 1580 2750 3050 3380
2021-01-02 14:30 4.90 1380 3460 (2016) 421 (2011) 1660 423 450 480 1580 2750 3050 3380
2021-01-02 13:30 4.91 1390 3460 (2016) 421 (2011) 1660 423 450 480 1580 2750 3050 3380
2021-01-02 12:30 4.93 1400 3460 (2016) 421 (2011) 1660 423 450 480 1580 2750 3050 3380
2021-01-02 11:30 4.94 1410 3460 (2016) 421 (2011) 1660 423 450 480 1580 2750 3050 3380
2021-01-02 10:30 4.96 1420 3460 (2016) 421 (2011) 1660 423 450 480 1580 2750 3050 3380
2021-01-02 09:30 4.97 1430 3460 (2016) 421 (2011) 1660 423 450 480 1580 2750 3050 3380
2021-01-02 08:30 4.99 1450 3460 (2016) 421 (2011) 1660 423 450 480 1580 2750 3050 3380
2021-01-02 07:30 5.01 1460 3460 (2016) 421 (2011) 1660 423 450 480 1580 2750 3050 3380
2021-01-02 06:30 5.02 1470 3460 (2016) 421 (2011) 1660 423 450 480 1580 2750 3050 3380
2021-01-02 05:30 5.04 1480 3460 (2016) 421 (2011) 1660 423 450 480 1580 2750 3050 3380
2021-01-02 04:30 5.05 1490 3460 (2016) 421 (2011) 1660 423 450 480 1580 2750 3050 3380
2021-01-02 03:30 5.06 1500 3460 (2016) 421 (2011) 1660 423 450 480 1580 2750 3050 3380
2021-01-02 02:30 5.07 1500 3460 (2016) 421 (2011) 1660 423 450 480 1580 2750 3050 3380
2021-01-02 01:30 5.07 1500 3460 (2016) 421 (2011) 1660 423 450 480 1580 2750 3050 3380
2021-01-02 00:30 5.08 1510 3460 (2016) 421 (2011) 1660 423 450 480 1580 2750 3050 3380
2021-01-01 23:30 5.08 1510 3270 (2010) 422 (2018) 1700 423 442 471 1580 3020 3250 3270
2021-01-01 22:30 5.08 1510 3270 (2010) 422 (2018) 1700 423 442 471 1580 3020 3250 3270
2021-01-01 21:30 5.08 1510 3270 (2010) 422 (2018) 1700 423 442 471 1580 3020 3250 3270
2021-01-01 20:30 5.09 1520 3270 (2010) 422 (2018) 1700 423 442 471 1580 3020 3250 3270
2021-01-01 19:30 5.09 1520 3270 (2010) 422 (2018) 1700 423 442 471 1580 3020 3250 3270
2021-01-01 18:30 5.10 1530 3270 (2010) 422 (2018) 1700 423 442 471 1580 3020 3250 3270
2021-01-01 17:30 5.09 1520 3270 (2010) 422 (2018) 1700 423 442 471 1580 3020 3250 3270
2021-01-01 16:30 5.09 1520 3270 (2010) 422 (2018) 1700 423 442 471 1580 3020 3250 3270
2021-01-01 15:30 5.08 1510 3270 (2010) 422 (2018) 1700 423 442 471 1580 3020 3250 3270
2021-01-01 14:30 5.05 1490 3270 (2010) 422 (2018) 1700 423 442 471 1580 3020 3250 3270
2021-01-01 13:30 4.98 1440 3270 (2010) 422 (2018) 1700 423 442 471 1580 3020 3250 3270
2021-01-01 12:30 4.87 1360 3270 (2010) 422 (2018) 1700 423 442 471 1580 3020 3250 3270
2021-01-01 11:30 4.75 1270 3270 (2010) 422 (2018) 1700 423 442 471 1580 3020 3250 3270
2021-01-01 10:30 4.68 1230 3270 (2010) 422 (2018) 1700 423 442 471 1580 3020 3250 3270
2021-01-01 09:30 4.62 1180 3270 (2010) 422 (2018) 1700 423 442 471 1580 3020 3250 3270
2021-01-01 08:30 4.53 1120 3270 (2010) 422 (2018) 1700 423 442 471 1580 3020 3250 3270
2021-01-01 07:30 4.41 1040 3270 (2010) 422 (2018) 1700 423 442 471 1580 3020 3250 3270
2021-01-01 06:30 4.31 979 3270 (2010) 422 (2018) 1700 423 442 471 1580 3020 3250 3270
2021-01-01 05:30 4.25 941 3270 (2010) 422 (2018) 1700 423 442 471 1580 3020 3250 3270
2021-01-01 04:30 4.21 916 3270 (2010) 422 (2018) 1700 423 442 471 1580 3020 3250 3270
2021-01-01 03:30 4.17 891 3270 (2010) 422 (2018) 1700 423 442 471 1580 3020 3250 3270
2021-01-01 02:30 4.17 891 3270 (2010) 422 (2018) 1700 423 442 471 1580 3020 3250 3270
2021-01-01 01:30 4.17 891 3270 (2010) 422 (2018) 1700 423 442 471 1580 3020 3250 3270
2021-01-01 00:30 4.18 898 3270 (2010) 422 (2018) 1700 423 442 471 1580 3020 3250 3270
2020-12-31 23:30 4.18 898 3370 (2010) 426 (2011) 1710 427 443 469 1500 3160 3320 3360
2020-12-31 22:30 4.17 891 3370 (2010) 426 (2011) 1710 427 443 469 1500 3160 3320 3360
2020-12-31 21:30 4.16 885 3370 (2010) 426 (2011) 1710 427 443 469 1500 3160 3320 3360
2020-12-31 20:30 4.13 867 3370 (2010) 426 (2011) 1710 427 443 469 1500 3160 3320 3360
2020-12-31 19:30 4.11 855 3370 (2010) 426 (2011) 1710 427 443 469 1500 3160 3320 3360
2020-12-31 18:30 4.07 831 3370 (2010) 426 (2011) 1710 427 443 469 1500 3160 3320 3360
2020-12-31 17:30 4.03 807 3370 (2010) 426 (2011) 1710 427 443 469 1500 3160 3320 3360
2020-12-31 16:30 3.99 783 3370 (2010) 426 (2011) 1710 427 443 469 1500 3160 3320 3360
2020-12-31 15:30 3.96 766 3370 (2010) 426 (2011) 1710 427 443 469 1500 3160 3320 3360
2020-12-31 14:30 3.94 754 3370 (2010) 426 (2011) 1710 427 443 469 1500 3160 3320 3360
2020-12-31 13:30 3.93 748 3370 (2010) 426 (2011) 1710 427 443 469 1500 3160 3320 3360
2020-12-31 12:30 3.94 754 3370 (2010) 426 (2011) 1710 427 443 469 1500 3160 3320 3360
2020-12-31 11:30 3.94 754 3370 (2010) 426 (2011) 1710 427 443 469 1500 3160 3320 3360
2020-12-31 10:30 3.94 754 3370 (2010) 426 (2011) 1710 427 443 469 1500 3160 3320 3360
2020-12-31 09:30 3.94 754 3370 (2010) 426 (2011) 1710 427 443 469 1500 3160 3320 3360
2020-12-31 08:30 3.94 754 3370 (2010) 426 (2011) 1710 427 443 469 1500 3160 3320 3360
2020-12-31 07:30 3.94 754 3370 (2010) 426 (2011) 1710 427 443 469 1500 3160 3320 3360
2020-12-31 06:30 3.94 754 3370 (2010) 426 (2011) 1710 427 443 469 1500 3160 3320 3360
2020-12-31 05:30 3.93 748 3370 (2010) 426 (2011) 1710 427 443 469 1500 3160 3320 3360
2020-12-31 04:30 3.93 748 3370 (2010) 426 (2011) 1710 427 443 469 1500 3160 3320 3360
2020-12-31 03:30 3.93 748 3370 (2010) 426 (2011) 1710 427 443 469 1500 3160 3320 3360
2020-12-31 02:30 3.92 743 3370 (2010) 426 (2011) 1710 427 443 469 1500 3160 3320 3360
2020-12-31 01:30 3.92 743 3370 (2010) 426 (2011) 1710 427 443 469 1500 3160 3320 3360
2020-12-31 00:30 3.92 743 3370 (2010) 426 (2011) 1710 427 443 469 1500 3160 3320 3360
2020-12-30 23:30 3.91 737 3530 (2009) 415 (2011) 1710 416 436 464 1220 3260 3410 3510
2020-12-30 22:30 3.90 731 3530 (2009) 415 (2011) 1710 416 436 464 1220 3260 3410 3510
2020-12-30 21:30 3.89 725 3530 (2009) 415 (2011) 1710 416 436 464 1220 3260 3410 3510
2020-12-30 20:30 3.89 725 3530 (2009) 415 (2011) 1710 416 436 464 1220 3260 3410 3510
2020-12-30 19:30 3.88 720 3530 (2009) 415 (2011) 1710 416 436 464 1220 3260 3410 3510
2020-12-30 18:30 3.87 714 3530 (2009) 415 (2011) 1710 416 436 464 1220 3260 3410 3510
2020-12-30 17:30 3.85 703 3530 (2009) 415 (2011) 1710 416 436 464 1220 3260 3410 3510
2020-12-30 16:30 3.85 703 3530 (2009) 415 (2011) 1710 416 436 464 1220 3260 3410 3510
2020-12-30 15:30 3.85 703 3530 (2009) 415 (2011) 1710 416 436 464 1220 3260 3410 3510
2020-12-30 14:30 3.85 703 3530 (2009) 415 (2011) 1710 416 436 464 1220 3260 3410 3510
2020-12-30 13:30 3.85 703 3530 (2009) 415 (2011) 1710 416 436 464 1220 3260 3410 3510
2020-12-30 12:30 3.85 703 3530 (2009) 415 (2011) 1710 416 436 464 1220 3260 3410 3510
2020-12-30 11:30 3.85 703 3530 (2009) 415 (2011) 1710 416 436 464 1220 3260 3410 3510
2020-12-30 10:30 3.84 697 3530 (2009) 415 (2011) 1710 416 436 464 1220 3260 3410 3510
2020-12-30 09:30 3.83 692 3530 (2009) 415 (2011) 1710 416 436 464 1220 3260 3410 3510
2020-12-30 08:30 3.83 692 3530 (2009) 415 (2011) 1710 416 436 464 1220 3260 3410 3510
2020-12-30 07:30 3.81 680 3530 (2009) 415 (2011) 1710 416 436 464 1220 3260 3410 3510
2020-12-30 06:30 3.80 675 3530 (2009) 415 (2011) 1710 416 436 464 1220 3260 3410 3510
2020-12-30 05:30 3.79 669 3530 (2009) 415 (2011) 1710 416 436 464 1220 3260 3410 3510
2020-12-30 04:30 3.79 669 3530 (2009) 415 (2011) 1710 416 436 464 1220 3260 3410 3510
2020-12-30 03:30 3.78 664 3530 (2009) 415 (2011) 1710 416 436 464 1220 3260 3410 3510
2020-12-30 02:30 3.78 664 3530 (2009) 415 (2011) 1710 416 436 464 1220 3260 3410 3510
2020-12-30 01:30 3.79 669 3530 (2009) 415 (2011) 1710 416 436 464 1220 3260 3410 3510
2020-12-30 00:30 3.78 664 3530 (2009) 415 (2011) 1710 416 436 464 1220 3260 3410 3510
2020-12-29 23:30 3.79 669 4550 (2016) 401 (2011) 1760 406 477 521 1070 3270 3490 4240
2020-12-29 22:30 3.78 664 4550 (2016) 401 (2011) 1760 406 477 521 1070 3270 3490 4240
2020-12-29 21:30 3.79 669 4550 (2016) 401 (2011) 1760 406 477 521 1070 3270 3490 4240
2020-12-29 20:30 3.79 669 4550 (2016) 401 (2011) 1760 406 477 521 1070 3270 3490 4240
2020-12-29 19:30 3.79 669 4550 (2016) 401 (2011) 1760 406 477 521 1070 3270 3490 4240
2020-12-29 18:30 3.79 669 4550 (2016) 401 (2011) 1760 406 477 521 1070 3270 3490 4240
2020-12-29 17:30 3.79 669 4550 (2016) 401 (2011) 1760 406 477 521 1070 3270 3490 4240
2020-12-29 16:30 3.79 669 4550 (2016) 401 (2011) 1760 406 477 521 1070 3270 3490 4240
2020-12-29 15:30 3.79 669 4550 (2016) 401 (2011) 1760 406 477 521 1070 3270 3490 4240
2020-12-29 14:30 3.79 669 4550 (2016) 401 (2011) 1760 406 477 521 1070 3270 3490 4240
2020-12-29 13:30 3.79 669 4550 (2016) 401 (2011) 1760 406 477 521 1070 3270 3490 4240
2020-12-29 12:30 3.79 669 4550 (2016) 401 (2011) 1760 406 477 521 1070 3270 3490 4240
2020-12-29 11:30 3.79 669 4550 (2016) 401 (2011) 1760 406 477 521 1070 3270 3490 4240
2020-12-29 10:30 3.79 669 4550 (2016) 401 (2011) 1760 406 477 521 1070 3270 3490 4240
2020-12-29 09:30 3.80 675 4550 (2016) 401 (2011) 1760 406 477 521 1070 3270 3490 4240
2020-12-29 08:30 3.79 669 4550 (2016) 401 (2011) 1760 406 477 521 1070 3270 3490 4240
2020-12-29 07:30 3.80 675 4550 (2016) 401 (2011) 1760 406 477 521 1070 3270 3490 4240
2020-12-29 06:30 3.80 675 4550 (2016) 401 (2011) 1760 406 477 521 1070 3270 3490 4240
2020-12-29 05:30 3.80 675 4550 (2016) 401 (2011) 1760 406 477 521 1070 3270 3490 4240
2020-12-29 04:30 3.81 680 4550 (2016) 401 (2011) 1760 406 477 521 1070 3270 3490 4240
2020-12-29 03:30 3.81 680 4550 (2016) 401 (2011) 1760 406 477 521 1070 3270 3490 4240
2020-12-29 02:30 3.81 680 4550 (2016) 401 (2011) 1760 406 477 521 1070 3270 3490 4240
2020-12-29 01:30 3.81 680 4550 (2016) 401 (2011) 1760 406 477 521 1070 3270 3490 4240
2020-12-29 00:30 3.82 686 4550 (2016) 401 (2011) 1760 406 477 521 1070 3270 3490 4240
2020-12-28 23:30 3.82 686 10300 (2016) 395 (2011) 2070 403 459 500 952 3050 3450 8250
2020-12-28 22:30 3.83 692 10300 (2016) 395 (2011) 2070 403 459 500 952 3050 3450 8250
2020-12-28 21:30 3.84 697 10300 (2016) 395 (2011) 2070 403 459 500 952 3050 3450 8250
2020-12-28 20:30 3.85 703 10300 (2016) 395 (2011) 2070 403 459 500 952 3050 3450 8250
2020-12-28 19:30 3.86 708 10300 (2016) 395 (2011) 2070 403 459 500 952 3050 3450 8250
2020-12-28 18:30 3.87 714 10300 (2016) 395 (2011) 2070 403 459 500 952 3050 3450 8250
2020-12-28 17:30 3.88 720 10300 (2016) 395 (2011) 2070 403 459 500 952 3050 3450 8250
2020-12-28 16:30 3.89 725 10300 (2016) 395 (2011) 2070 403 459 500 952 3050 3450 8250
2020-12-28 15:30 3.91 737 10300 (2016) 395 (2011) 2070 403 459 500 952 3050 3450 8250
2020-12-28 14:30 3.91 737 10300 (2016) 395 (2011) 2070 403 459 500 952 3050 3450 8250
2020-12-28 13:30 3.92 743 10300 (2016) 395 (2011) 2070 403 459 500 952 3050 3450 8250
2020-12-28 12:30 3.92 743 10300 (2016) 395 (2011) 2070 403 459 500 952 3050 3450 8250
2020-12-28 11:30 3.92 743 10300 (2016) 395 (2011) 2070 403 459 500 952 3050 3450 8250
2020-12-28 10:30 3.92 743 10300 (2016) 395 (2011) 2070 403 459 500 952 3050 3450 8250
2020-12-28 09:30 3.92 743 10300 (2016) 395 (2011) 2070 403 459 500 952 3050 3450 8250
2020-12-28 08:30 3.92 743 10300 (2016) 395 (2011) 2070 403 459 500 952 3050 3450 8250
2020-12-28 07:30 3.92 743 10300 (2016) 395 (2011) 2070 403 459 500 952 3050 3450 8250
2020-12-28 06:30 3.92 743 10300 (2016) 395 (2011) 2070 403 459 500 952 3050 3450 8250
2020-12-28 05:30 3.93 748 10300 (2016) 395 (2011) 2070 403 459 500 952 3050 3450 8250
2020-12-28 04:30 3.93 748 10300 (2016) 395 (2011) 2070 403 459 500 952 3050 3450 8250
2020-12-28 03:30 3.93 748 10300 (2016) 395 (2011) 2070 403 459 500 952 3050 3450 8250
2020-12-28 02:30 3.93 748 10300 (2016) 395 (2011) 2070 403 459 500 952 3050 3450 8250
2020-12-28 01:30 3.93 748 10300 (2016) 395 (2011) 2070 403 459 500 952 3050 3450 8250
2020-12-28 00:30 3.93 748 10300 (2016) 395 (2011) 2070 403 459 500 952 3050 3450 8250
2020-12-27 23:30 3.94 754 4370 (2016) 394 (2011) 1380 403 456 491 777 2410 2870 3970
2020-12-27 22:30 3.94 754 4370 (2016) 394 (2011) 1380 403 456 491 777 2410 2870 3970
2020-12-27 21:30 3.94 754 4370 (2016) 394 (2011) 1380 403 456 491 777 2410 2870 3970
2020-12-27 20:30 3.94 754 4370 (2016) 394 (2011) 1380 403 456 491 777 2410 2870 3970
2020-12-27 19:30 3.94 754 4370 (2016) 394 (2011) 1380 403 456 491 777 2410 2870 3970
2020-12-27 18:30 3.94 754 4370 (2016) 394 (2011) 1380 403 456 491 777 2410 2870 3970
2020-12-27 17:30 3.94 754 4370 (2016) 394 (2011) 1380 403 456 491 777 2410 2870 3970
2020-12-27 16:30 3.95 760 4370 (2016) 394 (2011) 1380 403 456 491 777 2410 2870 3970
2020-12-27 15:30 3.95 760 4370 (2016) 394 (2011) 1380 403 456 491 777 2410 2870 3970
2020-12-27 14:30 3.95 760 4370 (2016) 394 (2011) 1380 403 456 491 777 2410 2870 3970
2020-12-27 13:30 3.95 760 4370 (2016) 394 (2011) 1380 403 456 491 777 2410 2870 3970
2020-12-27 12:30 3.95 760 4370 (2016) 394 (2011) 1380 403 456 491 777 2410 2870 3970
2020-12-27 11:30 3.95 760 4370 (2016) 394 (2011) 1380 403 456 491 777 2410 2870 3970
2020-12-27 10:30 3.94 754 4370 (2016) 394 (2011) 1380 403 456 491 777 2410 2870 3970
2020-12-27 09:30 3.94 754 4370 (2016) 394 (2011) 1380 403 456 491 777 2410 2870 3970
2020-12-27 08:30 3.94 754 4370 (2016) 394 (2011) 1380 403 456 491 777 2410 2870 3970
2020-12-27 07:30 3.93 748 4370 (2016) 394 (2011) 1380 403 456 491 777 2410 2870 3970
2020-12-27 06:30 3.93 748 4370 (2016) 394 (2011) 1380 403 456 491 777 2410 2870 3970
2020-12-27 05:30 3.93 748 4370 (2016) 394 (2011) 1380 403 456 491 777 2410 2870 3970
2020-12-27 04:30 3.94 754 4370 (2016) 394 (2011) 1380 403 456 491 777 2410 2870 3970
2020-12-27 03:30 3.94 754 4370 (2016) 394 (2011) 1380 403 456 491 777 2410 2870 3970
2020-12-27 02:30 3.94 754 4370 (2016) 394 (2011) 1380 403 456 491 777 2410 2870 3970
2020-12-27 01:30 3.94 754 4370 (2016) 394 (2011) 1380 403 456 491 777 2410 2870 3970
2020-12-27 00:30 3.94 754 4370 (2016) 394 (2011) 1380 403 456 491 777 2410 2870 3970
2020-12-26 23:30 3.94 754 3370 (2016) 395 (2011) 1170 406 431 445 800 1860 2280 3110
2020-12-26 22:30 3.94 754 3370 (2016) 395 (2011) 1170 406 431 445 800 1860 2280 3110
2020-12-26 21:30 3.95 760 3370 (2016) 395 (2011) 1170 406 431 445 800 1860 2280 3110
2020-12-26 20:30 3.94 754 3370 (2016) 395 (2011) 1170 406 431 445 800 1860 2280 3110
2020-12-26 19:30 3.95 760 3370 (2016) 395 (2011) 1170 406 431 445 800 1860 2280 3110
2020-12-26 18:30 3.95 760 3370 (2016) 395 (2011) 1170 406 431 445 800 1860 2280 3110
2020-12-26 17:30 3.95 760 3370 (2016) 395 (2011) 1170 406 431 445 800 1860 2280 3110
2020-12-26 16:30 3.95 760 3370 (2016) 395 (2011) 1170 406 431 445 800 1860 2280 3110
2020-12-26 15:30 3.95 760 3370 (2016) 395 (2011) 1170 406 431 445 800 1860 2280 3110
2020-12-26 14:30 3.95 760 3370 (2016) 395 (2011) 1170 406 431 445 800 1860 2280 3110
2020-12-26 13:30 3.95 760 3370 (2016) 395 (2011) 1170 406 431 445 800 1860 2280 3110
2020-12-26 12:30 3.95 760 3370 (2016) 395 (2011) 1170 406 431 445 800 1860 2280 3110
2020-12-26 11:30 3.95 760 3370 (2016) 395 (2011) 1170 406 431 445 800 1860 2280 3110
2020-12-26 10:30 3.95 760 3370 (2016) 395 (2011) 1170 406 431 445 800 1860 2280 3110
2020-12-26 09:30 3.95 760 3370 (2016) 395 (2011) 1170 406 431 445 800 1860 2280 3110
2020-12-26 08:30 3.94 754 3370 (2016) 395 (2011) 1170 406 431 445 800 1860 2280 3110
2020-12-26 07:30 3.94 754 3370 (2016) 395 (2011) 1170 406 431 445 800 1860 2280 3110
2020-12-26 06:30 3.94 754 3370 (2016) 395 (2011) 1170 406 431 445 800 1860 2280 3110
2020-12-26 05:30 3.95 760 3370 (2016) 395 (2011) 1170 406 431 445 800 1860 2280 3110
2020-12-26 04:30 3.95 760 3370 (2016) 395 (2011) 1170 406 431 445 800 1860 2280 3110
2020-12-26 03:30 3.95 760 3370 (2016) 395 (2011) 1170 406 431 445 800 1860 2280 3110
2020-12-26 02:30 3.94 754 3370 (2016) 395 (2011) 1170 406 431 445 800 1860 2280 3110
2020-12-26 01:30 3.94 754 3370 (2016) 395 (2011) 1170 406 431 445 800 1860 2280 3110
2020-12-26 00:30 3.95 760 3370 (2016) 395 (2011) 1170 406 431 445 800 1860 2280 3110
2020-12-25 23:30 3.95 760 5460 (2010) 399 (2011) 1420 406 430 448 812 2040 2670 4760
2020-12-25 22:30 3.95 760 5460 (2010) 399 (2011) 1420 406 430 448 812 2040 2670 4760
2020-12-25 21:30 3.95 760 5460 (2010) 399 (2011) 1420 406 430 448 812 2040 2670 4760
2020-12-25 20:30 3.95 760 5460 (2010) 399 (2011) 1420 406 430 448 812 2040 2670 4760
2020-12-25 19:30 3.95 760 5460 (2010) 399 (2011) 1420 406 430 448 812 2040 2670 4760
2020-12-25 18:30 3.95 760 5460 (2010) 399 (2011) 1420 406 430 448 812 2040 2670 4760
2020-12-25 17:30 3.96 766 5460 (2010) 399 (2011) 1420 406 430 448 812 2040 2670 4760
2020-12-25 16:30 3.96 766 5460 (2010) 399 (2011) 1420 406 430 448 812 2040 2670 4760
2020-12-25 15:30 3.96 766 5460 (2010) 399 (2011) 1420 406 430 448 812 2040 2670 4760
2020-12-25 14:30 3.96 766 5460 (2010) 399 (2011) 1420 406 430 448 812 2040 2670 4760
2020-12-25 13:30 3.96 766 5460 (2010) 399 (2011) 1420 406 430 448 812 2040 2670 4760
2020-12-25 12:30 3.96 766 5460 (2010) 399 (2011) 1420 406 430 448 812 2040 2670 4760
2020-12-25 11:30 3.96 766 5460 (2010) 399 (2011) 1420 406 430 448 812 2040 2670 4760
2020-12-25 10:30 3.96 766 5460 (2010) 399 (2011) 1420 406 430 448 812 2040 2670 4760
2020-12-25 09:30 3.96 766 5460 (2010) 399 (2011) 1420 406 430 448 812 2040 2670 4760
2020-12-25 08:30 3.97 772 5460 (2010) 399 (2011) 1420 406 430 448 812 2040 2670 4760
2020-12-25 07:30 3.96 766 5460 (2010) 399 (2011) 1420 406 430 448 812 2040 2670 4760
2020-12-25 06:30 3.97 772 5460 (2010) 399 (2011) 1420 406 430 448 812 2040 2670 4760
2020-12-25 05:30 3.96 766 5460 (2010) 399 (2011) 1420 406 430 448 812 2040 2670 4760
2020-12-25 04:30 3.97 772 5460 (2010) 399 (2011) 1420 406 430 448 812 2040 2670 4760
2020-12-25 03:30 3.97 772 5460 (2010) 399 (2011) 1420 406 430 448 812 2040 2670 4760
2020-12-25 02:30 3.97 772 5460 (2010) 399 (2011) 1420 406 430 448 812 2040 2670 4760
2020-12-25 01:30 3.97 772 5460 (2010) 399 (2011) 1420 406 430 448 812 2040 2670 4760
2020-12-25 00:30 3.97 772 5460 (2010) 399 (2011) 1420 406 430 448 812 2040 2670 4760
2020-12-24 23:30 3.97 772 3030 (2010) 400 (2011) 1050 412 446 459 821 1420 1630 2670
2020-12-24 22:30 3.97 772 3030 (2010) 400 (2011) 1050 412 446 459 821 1420 1630 2670
2020-12-24 21:30 3.97 772 3030 (2010) 400 (2011) 1050 412 446 459 821 1420 1630 2670
2020-12-24 20:30 3.97 772 3030 (2010) 400 (2011) 1050 412 446 459 821 1420 1630 2670
2020-12-24 19:30 3.98 777 3030 (2010) 400 (2011) 1050 412 446 459 821 1420 1630 2670
2020-12-24 18:30 3.98 777 3030 (2010) 400 (2011) 1050 412 446 459 821 1420 1630 2670
2020-12-24 17:30 3.98 777 3030 (2010) 400 (2011) 1050 412 446 459 821 1420 1630 2670
2020-12-24 16:30 3.99 783 3030 (2010) 400 (2011) 1050 412 446 459 821 1420 1630 2670
2020-12-24 15:30 3.99 783 3030 (2010) 400 (2011) 1050 412 446 459 821 1420 1630 2670
2020-12-24 14:30 3.99 783 3030 (2010) 400 (2011) 1050 412 446 459 821 1420 1630 2670
2020-12-24 13:30 3.99 783 3030 (2010) 400 (2011) 1050 412 446 459 821 1420 1630 2670
2020-12-24 12:30 4.00 789 3030 (2010) 400 (2011) 1050 412 446 459 821 1420 1630 2670
2020-12-24 11:30 4.00 789 3030 (2010) 400 (2011) 1050 412 446 459 821 1420 1630 2670
2020-12-24 10:30 4.00 789 3030 (2010) 400 (2011) 1050 412 446 459 821 1420 1630 2670
2020-12-24 09:30 4.00 789 3030 (2010) 400 (2011) 1050 412 446 459 821 1420 1630 2670
2020-12-24 08:30 4.00 789 3030 (2010) 400 (2011) 1050 412 446 459 821 1420 1630 2670
2020-12-24 07:30 4.00 789 3030 (2010) 400 (2011) 1050 412 446 459 821 1420 1630 2670
2020-12-24 06:30 4.00 789 3030 (2010) 400 (2011) 1050 412 446 459 821 1420 1630 2670
2020-12-24 05:30 4.00 789 3030 (2010) 400 (2011) 1050 412 446 459 821 1420 1630 2670
2020-12-24 04:30 4.01 795 3030 (2010) 400 (2011) 1050 412 446 459 821 1420 1630 2670
2020-12-24 03:30 4.01 795 3030 (2010) 400 (2011) 1050 412 446 459 821 1420 1630 2670
2020-12-24 02:30 4.01 795 3030 (2010) 400 (2011) 1050 412 446 459 821 1420 1630 2670
2020-12-24 01:30 4.02 801 3030 (2010) 400 (2011) 1050 412 446 459 821 1420 1630 2670
2020-12-24 00:30 4.02 801 3030 (2010) 400 (2011) 1050 412 446 459 821 1420 1630 2670

A total of 749 rows are displayed for years 2009 through 2020.